Location: Marcaria
(45.1167°N, 10.5333°E)
Time: 16:49:24
(UTC+00:00)

Daily predictions for brighter satellites

Satellite Brightness Start Highest point End
(mag) Time Altitude Azimuth Time Altitude Azimuth Time Altitude Azimuth
Cosmos 332 Rocket 4.0 19:05:45 10° NNW 19:10:40 77° WSW 19:15:33 10° SSE
GEOS 3 Rocket 3.7 19:06:30 10° NE 19:11:37 54° ESE 19:16:35 10° SSW
Meteor 2-3 Rocket 3.9 19:08:16 10° S 19:13:48 57° E 19:19:27 10° NNE
Cosmos 2082 Rocket 4.2 19:09:16 10° WSW 19:14:22 34° NW 19:19:32 10° NNE
NOSS 2-1 (C) 3.1 19:13:02 10° SSW 19:16:16 45° ESE 19:19:27 10° NE
SAR-Lupe-1 4.0 19:13:03 10° NNE 19:16:38 67° ESE 19:20:11 10° S
Cosmos 220 Rocket 4.5 19:12:52 10° N 19:17:05 46° ENE 19:21:19 10° SE
Cosmos 2360 Rocket 2.9 19:12:01 10° NNW 19:17:20 40° NE 19:22:37 10° SE
Ariane Rocket 3.1 19:12:51 10° SSE 19:17:50 62° ENE 19:22:50 10° N
Cosmos 1606 4.2 19:14:44 10° NNW 19:18:17 38° W 19:21:50 10° SSW
SAR-Lupe-4 3.6 19:15:20 10° NNE 19:18:54 61° ESE 19:22:26 10° S
Cosmos 2098 Rocket 3.3 19:15:41 10° SSW 19:19:08 63° W 19:23:30 10° N
Helios 1A Rocket 3.2 19:16:32 10° S 19:20:35 71° WSW 19:24:41 10° NNW
NOSS 2-1 (D) 2.8 19:20:45 10° SSW 19:24:03 57° SE 19:27:18 10° NE
Cosmos 304 Rocket 4.3 19:19:45 10° NNW 19:24:29 61° WSW 19:29:10 10° S
SPOT 3 Rocket 4.2 19:19:47 10° SE 19:24:37 40° ENE 19:29:28 10° N
Meteor 2-19 Rocket 4.4 19:19:13 10° S 19:25:14 77° E 19:31:18 10° NNE
Cosmos 1766 Rocket 4.3 19:21:35 10° SSE 19:25:29 33° E 19:29:23 10° NNE
Cosmos 2151 3.1 19:23:13 10° S 19:27:28 82° W 19:31:48 10° N
Cosmos 1624 Rocket 4.4 19:24:29 10° N 19:29:34 48° ENE 19:34:25 11° SE
Cosmos 2084 3.6 19:26:02 10° SW 19:30:04 75° NW 19:34:15 10° NE
Resurs 01 Rocket 1.9 19:28:09 10° SSE 19:32:29 54° ENE 19:36:50 10° N
GRACE-FO 2 4.5 19:29:21 10° N 19:32:57 70° E 19:36:33 10° S
Gbstr 26 Del rocket 4.0 19:32:21 10° WNW 19:35:40 30° SW 19:39:06 10° SSE
Cosmos 1812 3.6 19:37:51 10° N 19:41:23 33° ENE 19:44:02 15° SE
Cosmos 1933 3.7 19:37:39 10° NNW 19:41:40 68° W 19:45:38 10° S
Cosmos 1689 Rocket 4.5 19:39:29 10° NNW 19:41:48 25° WNW 19:44:07 10° SW
Landsat 7 3.9 19:38:12 10° SSE 19:42:54 64° ENE 19:47:37 10° N
Cosmos 1862 4.3 19:40:34 12° SSE 19:43:33 29° E 19:47:00 10° NNE
ERS-1 Rocket 4.5 19:40:14 12° ESE 19:43:36 22° ENE 19:47:21 10° NNE
Cosmos 1782 2.8 19:39:37 10° N 19:43:38 73° E 19:47:35 10° SSE
Cosmos 1833 4.4 19:41:28 10° S 19:47:00 50° ESE 19:52:34 10° NE
SL-27 R/B 2.5 19:44:27 10° S 19:47:58 56° ESE 19:51:31 10° NNE
Cosmos 2333 Rocket 3.0 19:47:13 10° NNW 19:52:31 38° NE 19:56:33 16° ESE
BREEZE-M DEB (TANK) 2.7 19:50:14 10° WNW 19:53:10 58° SSW 19:58:28 16° SE
Cosmos 2237 Rocket 4.4 19:51:17 10° N 19:54:06 14° NE 19:56:54 10° ENE
Cosmos 2322 Rocket 2.5 19:49:02 10° NNW 19:54:38 67° WSW 20:00:04 11° SSE
SPOT 5 4.1 19:52:44 15° ESE 19:55:11 23° ENE 19:58:43 10° NNE
ARIANE 5 R/B 3.8 19:54:19 17° ESE 19:56:52 28° ENE 20:00:38 10° N
OBJECT-B 3.7 19:57:47 10° SW 19:59:34 14° W 20:01:23 10° WNW
BREEZE-M R/B 3.6 19:55:16 10° SSW 20:00:15 29° SSE 20:02:47 13° E
BREEZE-M DEB (TANK) 4.1 20:02:15 10° WNW 20:05:45 57° SSW 20:12:58 18° SE
Cosmos 2219 Rocket 2.9 20:01:25 10° NNW 20:06:41 40° NE 20:10:11 19° ESE
S3M 4.4 20:01:05 10° N 20:07:15 47° ENE 20:11:31 20° SE
Cosmos 2056 Rocket 3.6 20:06:06 10° NNW 20:11:26 78° WSW 20:15:29 17° SSE
ATLAS 5 CENTAUR R/B 3.1 20:07:38 10° NNW 20:12:47 41° NE 20:17:08 18° ESE
Meteor 1-27 Rocket 4.5 20:10:38 10° N 20:15:57 38° ENE 20:18:59 23° SE
Meteor 2-14 Rocket 4.4 20:10:08 10° S 20:16:15 74° E 20:22:22 10° NNE
Spot 2 Rocket 3.7 20:14:03 22° SE 20:17:14 57° ENE 20:22:15 10° N
SPOT 1/Viking Rocket 3.5 20:14:27 17° SSE 20:18:28 89° E 20:23:44 10° NNW
USA 245 3.3 20:16:54 24° SSE 20:19:23 72° ENE 20:22:55 10° N
Cosmos 1408 Rocket 3.5 20:17:01 19° S 20:19:59 62° E 20:24:16 10° NNE
NOSS 2-1 (E) 4.5 20:19:19 10° WSW 20:22:23 37° NW 20:25:38 10° NNE
Cosmos 1655 Rocket 4.2 20:19:07 18° SSE 20:23:44 53° E 20:29:56 10° NNE
CZ-2C R/B 3.5 20:22:10 10° NNE 20:26:39 82° ESE 20:30:27 14° S
Cosmos 1743 Rocket 4.1 20:25:40 30° SE 20:27:08 39° E 20:31:15 10° NNE
SL-16 R/B 3.9 20:23:06 10° NW 20:27:51 28° WSW 20:32:36 10° SSW
GP-B 3.5 20:25:19 10° N 20:29:43 63° W 20:33:40 13° SSW
CARTOSAT-1 3.5 20:29:08 30° SSE 20:31:14 75° ENE 20:35:33 10° N
Cosmos 1151 Rocket 4.1 20:28:14 10° NNW 20:32:23 43° W 20:36:06 12° SSW
Lacrosse 5 2.5 20:33:37 29° SSE 20:34:46 33° SE 20:39:17 10° ENE
NOSS 3-1 (C) 4.1 20:27:43 10° NW 20:35:16 85° SW 20:40:55 25° SSE
Cosmos 2333 4.1 20:33:16 10° NNW 20:38:54 86° WSW 20:41:51 29° SSE
Meteor 1-10 Rocket 4.2 20:37:59 10° NNW 20:43:34 84° W 20:46:47 26° S
COSMOS 2487 2.2 20:45:40 49° SSW 20:46:30 86° ESE 20:49:54 10° NNE
Cosmos 1515 Rocket 3.7 20:45:23 10° NNW 20:49:46 68° W 20:51:44 31° S
COSMOS 2428 2.7 20:45:48 10° NNW 20:51:31 70° ENE 20:53:52 36° SE
COSMOS 2455 2.9 20:46:52 10° SW 20:52:53 82° WNW 20:58:57 10° NNE
USA 229 DEB 3.9 20:46:06 10° NW 20:53:28 82° NE 20:57:36 31° SE
USA 229 3.9 20:46:12 10° NW 20:53:34 82° NE 20:57:42 31° SE
Terra 1.9 20:54:30 42° SE 20:55:59 64° ENE 21:00:42 10° N
Cosmos 2360 Rocket 3.5 20:56:13 10° NW 21:01:13 33° WSW 21:04:36 18° SSW
Cosmos 2084 Rocket 4.0 20:57:18 10° NNW 21:01:23 48° NE 21:02:26 39° E
Cosmos 1048 Rocket 3.8 20:59:48 31° S 21:02:16 75° ESE 21:07:24 10° NNE
Cosmos 972 Rocket 3.9 21:01:58 24° SSW 21:05:10 89° WNW 21:10:07 10° NNE
Resurs 01 Rocket 4.1 21:06:32 10° SW 21:09:18 16° W 21:12:05 10° NW
Cosmos 489 Rocket 4.4 21:06:25 29° S 21:09:51 71° ESE 21:16:12 10° NNE
Cosmos 2266 Rocket 4.1 21:09:42 23° SSW 21:13:47 76° W 21:20:06 10° N
NOSS 3-1 (A) 4.1 21:06:30 10° NW 21:14:06 81° SW 21:18:16 35° SSE
IRIDIUM 106 4.3 21:08:55 10° N 21:14:08 68° E 21:15:24 50° SSE
Cosmos 1707 Rocket 4.2 21:12:21 10° N 21:16:31 41° ENE 21:16:40 41° E
H-2A R/B 3.7 21:13:10 10° NNE 21:17:03 52° E 21:17:03 52° E
Okean 1 4.3 21:13:57 10° N 21:17:20 33° ENE 21:17:20 33° ENE
Cosmos 1980 4.3 21:12:25 10° NNW 21:17:53 46° ENE 21:19:35 36° ESE
ERS-1 Rocket 3.4 21:20:14 35° SSW 21:22:01 54° W 21:26:57 10° NNW
Gblst 52 Del rocket 4.5 21:16:39 10° WNW 21:22:43 71° SW 21:24:53 44° SE
Cosmos 2228 Rocket 3.2 21:21:46 10° NNW 21:26:12 71° W 21:26:53 58° SSW
Cosmos 2285 Rocket 4.2 21:24:37 10° NNW 21:30:51 65° WSW 21:33:03 40° S
Cosmos 2297 Rocket 2.7 21:31:26 41° ESE 21:31:26 41° ESE 21:36:32 10° NE
Cosmos 1805 Rocket 3.6 21:31:35 59° SW 21:32:18 73° W 21:36:43 10° N
SPOT 5 3.7 21:31:58 32° SW 21:33:03 37° W 21:37:14 10° NNW
ARIANE 5 R/B 4.0 21:31:52 26° SW 21:33:15 31° W 21:37:11 10° NNW
Cosmos 972 4.4 21:32:40 51° S 21:34:05 85° ESE 21:39:10 10° NNE
BREEZE-M DEB (TANK) 2.6 21:30:38 10° WNW 21:34:36 55° WNW 21:34:36 55° WNW
Cosmos 2315 Rocket 4.1 21:28:53 10° NNW 21:35:13 73° W 21:37:37 40° SSW
NOSS 0 Rocket 3.8 21:29:57 10° NNW 21:36:13 88° ENE 21:37:53 52° SSE
Cosmos 2333 Rocket 3.2 21:31:37 10° NW 21:36:44 36° WSW 21:38:33 29° SW
Cosmos 2237 Rocket 2.4 21:33:43 10° NNW 21:39:22 63° ENE 21:40:34 50° ESE
Meteor 1-20 Rocket 4.2 21:40:21 48° SSW 21:42:01 84° W 21:47:48 10° N
Cosmos 2227 Rocket 2.8 21:44:50 38° E 21:44:50 38° E 21:49:29 10° NE
ALOS 2 4.2 21:45:45 23° ENE 21:45:48 23° ENE 21:49:16 10° NNE
NOSS 2-2 (E) 4.5 21:41:40 10° NW 21:47:08 79° NE 21:49:13 48° SE
Cosmos 2219 Rocket 3.2 21:45:34 10° NW 21:50:32 33° WSW 21:51:54 29° SW
Cosmos 1745 Rocket 4.5 21:50:35 41° ESE 21:51:15 42° E 21:57:08 10° NNE
Meteor 1-14 Rocket 4.4 21:51:39 50° ESE 21:51:52 50° E 21:57:21 10° NNE
Sich 1 3.4 21:53:28 53° W 21:53:48 55° WNW 21:58:03 10° N
ATLAS 5 CENTAUR R/B 2.9 21:52:06 10° NW 21:57:36 46° WSW 21:58:38 43° SSW
BREEZE-M DEB (TANK) 4.3 21:43:11 10° WSW 21:58:55 74° SSE 22:02:13 23° E
Cosmos 1331 Rocket 4.2 21:54:01 10° NNW 21:59:07 56° WSW 21:59:36 54° SW
Cosmos 1110 Rocket 4.5 21:55:25 10° NNW 22:00:32 49° WSW 22:01:08 47° SW
Nadezhda 1 Rocket 4.2 21:59:16 10° N 22:05:36 58° ENE 22:06:40 52° ESE
Cosmos 1633 Rocket 3.3 22:10:51 67° NNW 22:10:51 67° NNW 22:14:43 10° N
SL-16 R/B 3.0 22:06:27 10° NNW 22:11:50 42° ENE 22:12:56 38° E
Cosmos 1470 Rocket 4.2 22:14:08 48° NE 22:14:08 48° NE 22:17:25 10° NNE
NOSS 2-2 (C) 4.4 22:07:42 10° NW 22:13:09 86° SW 22:14:24 62° SSE
Cosmos 1666 4.1 22:15:50 34° NNE 22:15:50 34° NNE 22:18:09 10° NNE
Lacrosse 5 2.5 22:12:35 10° WSW 22:17:34 54° NW 22:22:33 10° NE
Cosmos 1666 Rocket 4.2 22:21:09 50° WNW 22:21:09 50° WNW 22:25:27 10° N
Timation 1 Rocket 4.3 22:21:27 63° ESE 22:21:27 63° ESE 22:27:18 10° NNE
Cosmos 1340 Rocket 4.2 22:28:39 33° NNE 22:28:39 33° NNE 22:31:00 10° NNE
Terra 4.0 22:33:24 15° W 22:34:09 15° W 22:36:57 10° NW
COBE Rocket 4.4 22:36:50 47° W 22:36:50 47° W 22:41:02 10° NNW
CZ-4C R/B 3.4 22:30:20 10° NNW 22:37:20 56° NE 22:41:11 32° ESE
Timation 2 Rocket 3.7 22:39:27 77° SE 22:39:41 78° ESE 22:45:53 10° NNE
Meteor 2-4 Rocket 3.8 22:34:31 10° NNW 22:40:24 68° W 22:40:46 66° WSW
CZ-3B R/B 3.3 22:35:08 10° WNW 22:39:48 36° W 22:39:48 36° W
Cosmos 1992 Rocket 4.0 22:38:13 10° NNW 22:43:15 76° NE 22:43:15 76° NE
Cosmos 2242 Rocket 4.2 22:41:03 10° N 22:44:34 52° NNE 22:44:34 52° NNE
USA 267 3.1 22:41:12 10° NE 22:47:45 68° SE 22:48:10 66° SSE
Cosmos 2219 3.5 22:48:17 54° WSW 22:49:16 63° WNW 22:55:00 10° NNE
Meteor 1-5 Rocket 4.3 22:49:36 66° WSW 22:50:09 71° WNW 22:56:06 10° N
Cosmos 1066 Rocket 4.3 22:49:20 10° N 22:55:12 68° ENE 22:55:26 67° E
Cosmos 2082 3.6 23:01:12 80° E 23:01:12 80° E 23:06:46 10° NNE
Cosmos 1703 Rocket 4.3 22:58:02 10° NNW 23:01:20 50° NNW 23:01:20 50° NNW
Cosmos 909 Rocket 4.4 23:02:47 48° SW 23:04:48 74° NW 23:12:43 10° NNE
Meteor 1-11 Rocket 3.6 23:05:20 78° ENE 23:05:20 78° ENE 23:10:40 10° NNE
Okean 1-7 4.0 23:06:34 10° NNW 23:09:33 42° NNW 23:09:33 42° NNW
Cosmos 2181 Rocket 4.0 23:05:57 10° N 23:12:14 69° E 23:12:46 65° ESE
Cosmos 2297 Rocket 3.5 23:13:12 26° W 23:15:22 34° NW 23:20:32 10° NNE
Nimbus 7 Rocket 4.2 23:12:31 10° NNE 23:18:33 86° WNW 23:18:52 80° SW
USA 234 3.4 23:18:03 31° ESE 23:21:23 69° NNE 23:27:54 10° NW
Meteor 1-23 Rocket 4.2 23:15:40 10° N 23:21:26 74° ENE 23:21:35 73° E
ALOS 2 4.0 23:23:09 31° WNW 23:23:09 31° WNW 23:26:02 10° NNW
Cosmos 2237 Rocket 3.9 23:18:46 10° NW 23:22:23 21° W 23:22:23 21° W
Cosmos 614 Rocket 4.1 23:23:41 73° NNE 23:23:41 73° NNE 23:28:25 10° NNE
Cosmos 1461 3.9 23:27:18 49° N 23:27:18 49° N 23:30:46 10° NNE
Cosmos 1709 Rocket 4.1 23:26:19 60° WSW 23:27:03 65° W 23:33:25 10° N
Cosmos 2227 Rocket 3.4 23:26:37 29° W 23:28:20 36° NW 23:33:32 10° NNE
SL-24 R/B - RUBIN 2 4.3 23:27:53 10° NNW 23:32:45 52° NE 23:32:45 52° NE
Cosmos 2263 Rocket 2.6 23:33:28 53° E 23:33:28 53° E 23:38:34 10° NE
Cosmos 2344 3.8 23:34:40 47° SE 23:35:15 48° ESE 23:42:29 10° NE
Cosmos 1536 4.3 23:40:44 33° NNW 23:40:44 33° NNW 23:43:23 10° N
Cosmos 1603 4.2 23:35:04 10° NNW 23:40:35 53° ENE 23:41:32 47° E
PSLV R/B 4.1 23:38:33 10° NNE 23:42:34 63° N 23:42:34 63° N
ASTEX 1 3.8 23:46:47 54° ENE 23:46:47 54° ENE 23:51:23 10° N
Meteor 2-9 Rocket 4.4 23:50:41 55° E 23:50:41 55° E 23:55:52 10° NNE
Thor Agena Rocket 3.6 23:47:48 10° N 23:52:34 67° NW 23:52:34 67° NW
Cosmos 44 4.2 23:47:46 10° NW 23:51:25 41° WNW 23:51:25 41° WNW
